Torna al catalogo

COSMOS 2491 DEB

LostPO
NORAD 57547·DEBRIS·🇷🇺 Russia

Lanciato Dec 25, 2013 da Plesetsk Cosmodrome

Loading…

Prossimi Passaggi (prossime 24 ore)

TLE

ObsoletoSource: Space-Track

Epoca: Jul 9, 2026, 14:54 UTC

1 57547U 13076AJ  26190.62130399  .00001093  00000-0  71877-2 0  9991
2 57547  82.4641 144.5643 0018337  15.8415 344.3238 12.49344625144240

Traccia COSMOS 2491 DEB in tempo reale con AllMySat

Download on the App Store